Flag for U.S.A. Weather past 2 weeks in Waterbury, Connecticut, U.S.A.

Now
84 °F

Scattered clouds.


Feels Like: 86 °F
Forecast: 67 / 87 °F
Wind: 9 mph from Northwest

Location: Oxford

Current Time: Aug 31, 2015 at 6:35:17 PM

Latest Report: Aug 31, 2015 at 4:50 PM


Visibility: 10 mi

Pressure: 29.98 "Hg

Humidity: 51%

Dew point: 64 °F

Location of WaterburyLocation

Historic Weather in Waterbury — Graph

°F

Waterbury temperature yesterday

Maximum temperature yesterday: 84 °F (at 2:50 PM)
Minimum temperature yesterday: 63 °F (at 4:15 AM)
Average temperature yesterday: 71 °F

Past Weeks' High & Low Weather Summary

 TemperatureHumidityPressure
High90 °F (Aug 17, 2:55 PM)83% (Aug 17, 3:55 AM)30.26 "Hg (Aug 17, 3:55 AM)
Low54 °F (Aug 28, 6:15 AM)44% (Aug 26, 2:50 PM)29.85 "Hg (Aug 25, 4:50 PM)
Average70 °F70%30.06 "Hg
* Reported Aug 16 4:52 PM — Aug 31 4:50 PM, Waterbury, Weather by CustomWeather, © 2015

Note: Actual official high and low records may vary slightly from our data, if they occured in-between our weather recording intervals... More about our weather records

Advertising

Waterbury weather history for previous 24 hours

 ConditionsComfort  
Time TempWeatherWind HumidityBarometerVisibility
4:50 PM
Mon, Aug 31
84 °FScattered clouds.9 mph51%29.98 "Hg10 mi
3:50 PM84 °FPassing clouds.8 mph51%29.98 "Hg8 mi
2:52 PM84 °FPassing clouds.9 mph51%30.01 "Hg8 mi
1:52 PM82 °FSunny.7 mph55%30.03 "Hg8 mi
12:50 PM82 °FSunny.7 mph55%30.04 "Hg8 mi
11:50 AM81 °FSunny.12 mph58%30.05 "Hg8 mi
10:55 AM79 °FPartly sunny.5 mph65%30.05 "Hg6 mi
9:50 AM75 °FPartly sunny.5 mph69%30.06 "Hg6 mi
8:55 AM73 °FHaze.3 mph74%30.05 "Hg6 mi
7:55 AM72 °FScattered clouds.No wind73%30.05 "Hg5 mi
6:55 AM70 °FFog.No wind78%30.05 "Hg5 mi
5:50 AM70 °FFog.No wind78%30.03 "Hg4 mi
5:35 AM70 °FClear.No wind78%30.03 "Hg5 mi
5:15 AM68 °FClear.No wind78%30.03 "Hg5 mi
4:55 AM70 °FClear.No wind78%30.03 "Hg7 mi
4:35 AM70 °FClear.No wind78%30.03 "Hg8 mi
4:15 AM70 °FClear.No wind78%30.04 "Hg8 mi
3:55 AM70 °FClear.No wind78%30.04 "Hg8 mi
3:35 AM70 °FClear.No wind78%30.04 "Hg7 mi
3:15 AM68 °FClear.No wind78%30.04 "Hg7 mi
2:55 AM70 °FClear.No wind78%30.04 "Hg9 mi
2:35 AM70 °FClear.No wind78%30.05 "Hg9 mi
2:15 AM70 °FClear.No wind78%30.04 "Hg10 mi
1:55 AM70 °FClear.No wind78%30.05 "Hg10 mi
1:35 AM72 °FClear.No wind73%30.05 "Hg10 mi
1:15 AM72 °FClear.No wind73%30.05 "Hg10 mi
12:55 AM72 °FClear.No wind73%30.06 "Hg10 mi
12:35 AM72 °FClear.3 mph73%30.06 "Hg10 mi
12:15 AM72 °FPassing clouds.5 mph73%30.06 "Hg10 mi
11:35 PM
Sun, Aug 30
72 °FOvercast.No wind78%30.06 "Hg10 mi
11:15 PM72 °FMostly cloudy.No wind78%30.06 "Hg10 mi
10:55 PM73 °FMostly cloudy.No wind74%30.06 "Hg10 mi
10:35 PM72 °FPassing clouds.No wind73%30.07 "Hg10 mi
10:15 PM73 °FPassing clouds.No wind74%30.07 "Hg10 mi
9:55 PM75 °FMostly cloudy.No wind69%30.07 "Hg10 mi
9:35 PM73 °FPassing clouds.3 mph74%30.08 "Hg10 mi
9:15 PM73 °FClear.No wind74%30.07 "Hg10 mi
8:55 PM75 °FClear.No wind69%30.07 "Hg10 mi
7:50 PM77 °FSunny.6 mph65%30.05 "Hg10 mi
6:52 PM79 °FSunny.6 mph61%30.05 "Hg10 mi
Weather by CustomWeather, © 2015

See weather overviewHow to use our weather pages